Location: Street
(51.1247°N, 2.7429°W)
Time: 18:03:16
(UTC+00:00)

Courier 1B Rocket - Pass Details

Date: 04 December 2020
Orbit: 920 x 1202 km, 28.2° (Epoch: 14 January)

Event Time Altitude Azimuth Distance (km) Brightness Sun altitude
Exits shadow 04:29:11 - 187° (S) 3,186 7.6 -31.5°
Reaches altitude 10° 04:30:09 10° 180° (S) 3,116 7.6 -31.3°
Maximum altitude 04:31:31 11° 170° (S) 3,083 7.7 -31.1°
Drops below altitude 10° 04:32:53 10° 160° (SSE) 3,126 7.8 -30.9°
Sets 04:38:59 0° 124° (SE) 4,088 9.0 -30.0°
